www.pogodaiklimat.ru

Погода и климат >> Архив погоды >> Венгрия >> Дебрецен


ПОГОДА в Дебрецене

  • Прогноз погоды в Дебрецене
  • Монитор погоды в Дебрецене

АРХИВ ПОГОДЫ в Дебрецене

Время (UTC), дата Ветер
(напр.,м/с)
 
Видим.   Явления Облачность Т
(С)
Тd
(С)
f
(%)
Тe
(С)
Тes
(С)
Комфортность P
(гПа)
Po
(гПа)
Тmin
(С)
Tmax
(С)
R
(мм)
R24
(мм)
S
(см)
01 17.02 ЮВ 1 н/о н/о -0.1 -1.4 91 -2 -2 1030.4 1016.6
02 17.02 В 1 н/о н/о -0.8 -1.9 92 -3 -3 1030.0 1016.2
03 17.02 ЮВ 1 н/о н/о -1.6 -2.7 92 -4 -4 1030.0 1016.1
04 17.02 ЮВ 1 н/о н/о -1.6 -2.6 93 -4 -4 1029.7 1015.8
05 17.02 штиль 0 н/о н/о -2.2 -3.2 93 -3 -3 1029.9 1016.0
06 17.02 В 2 2500 м дымка ясно -3.0 -4.0 93 -7 -7 1030.6 1016.6 -3.0
07 17.02 ЮВ 1 н/о н/о -0.3 -1.1 94 -2 -2 1030.6 1016.8
08 17.02 Ю 4 н/о н/о +3.1 +0.7 84 -2 -2 1030.5 1016.8
09 17.02 Ю 3 н/о н/о +5.4 +1.1 74 +2 +2 1030.4 1016.9
10 17.02 Ю 3 н/о н/о +8.1 +2.1 66 +6 +6 1029.8 1016.4
11 17.02 ЮЗ 3 н/о н/о +10.1 +2.7 60 +8 +8 1029.1 1015.8
12 17.02 ЮЗ 2
{7}
12 км ясно +11.2 +2.5 55 +10 +10 1028.3 1015.1
13 17.02 З 2 н/о н/о +12.4 +2.8 52 +12 +12 1027.8 1014.6
14 17.02 З 2 н/о н/о +12.5 +2.6 51 +12 +12 1027.4 1014.2
15 17.02 ЮЗ 1 н/о н/о +12.2 +2.4 51 +13 +13 1027.0 1013.8
16 17.02 Ю 1 н/о н/о +9.6 +2.0 59 +9 +9 1026.9 1013.6
17 17.02 штиль 0 н/о н/о +7.0 +0.9 65 +6 +6 1027.4 1014.0
18 17.02 ЮВ 1 12 км ясно +5.4 +1.3 75 +4 +4 1027.3 1013.8 +12.7
19 17.02 В 1 н/о н/о +3.4 +0.6 82 +2 +2 1027.4 1013.8
20 17.02 СВ 1 н/о н/о +3.5 +0.7 82 +2 +2 1027.5 1013.9
21 17.02 СВ 1 н/о н/о +2.3 +0.2 86 +1 +1 1027.7 1014.0
22 17.02 СВ 1 н/о н/о +0.5 -1.3 88 -1 -1 1027.6 1013.9
23 17.02 В 1 н/о н/о +0.6 -0.8 90 -1 -1 1027.5 1013.8
00 18.02 В 1 н/о н/о +0.2 -1.1 91 -2 -2 1027.4 1013.6
01 18.02 СВ 2 н/о н/о -0.6 -1.7 92 -4 -4 1027.2 1013.4
02 18.02 СВ 2 н/о н/о -0.5 -1.5 93 -4 -4 1026.7 1012.9
03 18.02 В 1 н/о н/о -1.2 -2.2 93 -3 -3 1026.5 1012.7
04 18.02 штиль 0 н/о н/о -1.3 -2.1 94 -3 -3 1026.4 1012.6
05 18.02 В 1 н/о н/о -3.7 -4.7 93 -6 -6 1026.5 1012.6
06 18.02 СВ 2 700 м туман 1/0
[Ci sp]
-2.5 -3.3 94 -7 -7 1026.6 1012.7 -3.7
07 18.02 В 1 н/о н/о -0.1 -0.9 94 -2 -2 1027.2 1013.4
08 18.02 В 1 н/о н/о +3.3 +1.2 86 +2 +2 1026.9 1013.3
09 18.02 Ю 1 6000 м 1/0
[Ci sp]
+6.6 +1.5 70 +6 +6 1026.6 1013.2
10 18.02 Ю 2 н/о н/о +8.9 +1.8 61 +7 +7 1026.5 1013.2
11 18.02 Ю 2 н/о н/о +10.7 +1.8 54 +10 +10 1025.7 1012.5
12 18.02 ЮЗ 2 10 км 1/0
[Ci sp]
+12.5 +1.8 48 +12 +12 1024.8 1011.7
13 18.02 З 1 н/о н/о +13.2 +2.1 47 +14 +14 1024.4 1011.3
14 18.02 З 1 н/о н/о +13.5 +1.8 45 +14 +14 1023.9 1010.8
15 18.02 З 1 10 км 1/0
[Ci sp]
+13.4 +1.4 44 +14 +14 1023.7 1010.6
16 18.02 штиль 0 н/о н/о +9.9 +1.3 55 +10 +10 1023.6 1010.4
17 18.02 СЗ 2 н/о н/о +7.3 +1.4 66 +5 +5 1023.9 1010.5
18 18.02 С 1 7000 м ясно +4.2 +0.2 75 +3 +3 1023.9 1010.4 +13.8
19 18.02 СВ 1 н/о н/о +4.7 +0.8 76 +4 +4 1023.8 1010.3
20 18.02 СВ 1 н/о н/о +2.4 -0.2 83 +1 +1 1023.7 1010.1
21 18.02 СВ 1 н/о н/о +1.7 -0.7 84 0 0 1023.6 1010.0
22 18.02 СВ 2 н/о н/о +1.3 -0.8 86 -2 -2 1023.5 1009.8
23 18.02 СВ 2 н/о н/о +1.0 -1.1 86 -2 -2 1023.5 1009.8
00 19.02 СВ 2 н/о н/о +0.6 -1.0 89 -3 -3 1023.3 1009.6
01 19.02 СВ 1 н/о н/о -0.2 -1.6 90 -2 -2 1023.2 1009.5
02 19.02 СВ 1 н/о н/о -0.6 -1.9 91 -3 -3 1022.6 1008.9
03 19.02 СВ 2 н/о н/о -1.4 -2.5 92 -5 -5 1022.5 1008.7
04 19.02 СВ 2 н/о н/о -1.0 -2.0 93 -5 -5 1022.2 1008.5
05 19.02 СВ 2 н/о н/о -1.1 -2.2 92 -5 -5 1022.1 1008.3
06 19.02 СВ 2 2200 м местами туман поземный 1/0
[Ci sp]
-1.4 -2.4 93 -5 -5 1022.3 1008.5 -1.8
07 19.02 В 1 н/о н/о +0.6 -0.7 91 -1 -1 1022.4 1008.7
08 19.02 В 1 н/о н/о +4.8 +2.2 83 +4 +4 1022.1 1008.6
09 19.02 Ю 1 6000 м 1/0
[Ci sp]
+8.2 +1.8 64 +8 +8 1022.0 1008.7
10 19.02 ЮВ 1 н/о н/о +10.3 +2.2 57 +10 +10 1021.6 1008.4
11 19.02 Ю 1 н/о н/о +12.0 +2.5 52 +12 +12 1020.8 1007.7
12 19.02 Ю 2 15 км 4/0
[Ci sp]
+12.8 +2.4 49 +12 +12 1020.2 1007.1
13 19.02 ЮЗ 2 н/о н/о +13.2 +2.1 47 +13 +13 1019.5 1006.5
14 19.02 ЮЗ 2 н/о н/о +13.6 +1.9 45 +13 +13 1019.1 1006.1
15 19.02 штиль 0 20 км 1/0
[Ci sp]
+12.9 +1.6 46 +13 +13 1018.7 1005.7
16 19.02 ЮЗ 1 н/о н/о +10.2 +1.3 54 +10 +10 1018.7 1005.5
17 19.02 ЮЗ 1 н/о н/о +7.1 +1.2 66 +6 +6 1018.7 1005.4
18 19.02 СЗ 2 15 км ясно +6.6 +1.5 70 +5 +5 1018.8 1005.5 +13.8
19 19.02 штиль 0 н/о н/о +2.9 -0.6 78 +2 +2 1018.8 1005.3
20 19.02 ЮВ 1 н/о н/о +1.0 -1.9 81 -1 -1 1019.0 1005.4
21 19.02 штиль 0 н/о н/о +0.9 -1.7 83 -0 -0 1018.7 1005.1
22 19.02 СВ 1 н/о н/о 0.0 -2.1 86 -2 -2 1018.5 1004.9
23 19.02 штиль 0 н/о н/о -0.9 -2.8 87 -2 -2 1018.7 1005.0
00 20.02 В 1 н/о н/о -1.8 -3.5 88 -4 -4 1018.7 1005.0
01 20.02 В 1 н/о н/о -2.3 -4.2 87 -5 -5 1018.5 1004.7
02 20.02 ЮВ 1 н/о н/о -1.2 -2.6 90 -3 -3 1018.3 1004.6
03 20.02 Ю 2 н/о н/о -2.5 -3.9 90 -7 -7 1018.2 1004.4
04 20.02 Ю 2 н/о н/о -1.9 -3.2 91 -6 -6 1018.3 1004.6
05 20.02 Ю 1 н/о н/о -2.5 -3.8 91 -5 -5 1018.6 1004.8
06 20.02 В 1 1700 м дымка 3/0
[Ci sp]
-2.4 -3.5 92 -5 -5 1019.5 1005.7 -2.8
07 20.02 В 1 н/о н/о -0.5 -1.6 92 -3 -3 1020.2 1006.5
08 20.02 штиль 0 н/о н/о +3.0 +0.7 85 +2 +2 1020.4 1006.9
09 20.02 СЗ 2 н/о н/о +5.0 +1.3 77 +3 +3 1020.9 1007.5
10 20.02 СЗ 3 н/о н/о +7.6 +2.1 68 +5 +5 1021.3 1008.0
11 20.02 СЗ 2 н/о н/о +9.6 +2.5 61 +8 +12 1021.1 1007.9
12 20.02 СЗ 2 6000 м 4/4 1500 м
[Sc]
+10.1 +1.2 54 +9 +9 1021.0 1007.8
13 20.02 З 3 н/о н/о +11.5 0.0 45 +10 +10 1020.9 1007.8
14 20.02 ЮЗ 1 н/о н/о +10.6 -0.2 47 +11 +11 1020.9 1007.7
15 20.02 ЮВ 2 13 км 9/9 1500 м
[Sc]
+10.2 +0.2 50 +9 +9 1020.8 1007.6
16 20.02 В 2 н/о н/о +8.7 -0.3 53 +7 +7 1021.0 1007.7
17 20.02 СВ 4
{7}
н/о н/о +7.0 +0.2 62 +4 +4 1022.2 1008.8
18 20.02 СВ 2 12 км 3/0
[Ac cast]
+5.0 -0.4 68 +3 +3 1022.8 1009.3 +11.6
19 20.02 СВ 1 н/о н/о +4.3 -0.3 72 +3 +3 1023.2 1009.7
20 20.02 Ю 1 н/о н/о +3.3 -1.1 73 +2 +2 1023.8 1010.2
21 20.02 штиль 0 12 км 1/0
[Ac cast]
+1.6 -1.0 83 +1 +1 1024.0 1010.4
22 20.02 штиль 0 н/о н/о -0.4 -2.9 83 -2 -2 1024.7 1010.9
23 20.02 С 1 н/о н/о +0.3 -1.8 86 -2 -2 1025.2 1011.5
00 21.02 С 1 10 км 9/0
[Ac As]
-0.3 -2.4 86 -2 -2 1025.6 1011.8
01 21.02 штиль 0 н/о н/о -1.1 -3.0 87 -2 -2 1025.6 1011.8
02 21.02 В 1 н/о н/о -2.4 -4.3 87 -5 -5 1025.8 1011.9
03 21.02 штиль 0 н/о н/о -2.3 -3.9 89 -3 -3 1026.0 1012.1
04 21.02 штиль 0 н/о н/о -2.0 -3.9 87 -3 -3 1026.4 1012.5
05 21.02 ЮЗ 1 н/о н/о -1.5 -3.7 85 -4 -4 1026.3 1012.5
06 21.02 ЮЗ 3 2800 м дымка 9/9 2000 м
[Sc]
-1.0 -2.6 89 -6 -6 1027.0 1013.2 -2.6
07 21.02 ЮЗ 1 н/о н/о +0.2 -1.4 89 -2 -2 1027.4 1013.6
08 21.02 З 1 н/о н/о +2.5 +0.2 85 +1 +1 1027.3 1013.7
09 21.02 ЮЗ 2 7000 м 9/9 2000 м
[Sc]
+4.5 +0.8 77 +2 +2 1027.4 1013.9
10 21.02 ЮЗ 3 н/о н/о +6.6 -0.4 61 +4 +4 1027.3 1013.9
11 21.02 ЮЗ 4 н/о н/о +9.1 -1.0 49 +7 +7 1026.5 1013.2
12 21.02 ЮЗ 6
{10}
20 км 9/1 1500 м
[Cu Sc Cs]
+11.0 -3.9 35 +8 +8 1025.5 1012.3
13 21.02 З 5
{11}
н/о н/о +11.4 -3.5 35 +9 +9 1025.1 1011.9
14 21.02 ЮЗ 5
{9}
н/о н/о +11.5 -3.8 34 +9 +9 1024.8 1011.6
15 21.02 ЮЗ 4
{7}
25 км 8/0
[Ac lent Ci sp]
+10.8 -3.7 36 +9 +9 1024.4 1011.2
16 21.02 ЮЗ 2 н/о н/о +8.7 -3.8 41 +8 +8 1024.2 1010.9
17 21.02 Ю 3 н/о н/о +5.1 -3.7 53 +2 +2 1024.1 1010.6
18 21.02 Ю 2 30 км 9/0
[Ci sp]
+4.0 -3.3 59 +2 +2 1023.7 1010.2 +11.6
19 21.02 Ю 3 н/о н/о +4.5 -2.8 59 +1 +1 1023.1 1009.6
20 21.02 Ю 3 н/о н/о +4.7 -2.4 60 +2 +2 1022.9 1009.4
21 21.02 ЮЗ 3 20 км 9/0
[Ac As]
+5.2 -1.5 62 +2 +2 1022.2 1008.8
22 21.02 ЮЗ 3 н/о н/о +5.0 -0.4 68 +2 +2 1021.5 1008.1
23 21.02 З 3 н/о н/о +6.2 +1.3 71 +3 +3 1021.0 1007.6
00 22.02 З 2 н/о н/о +5.4 +2.2 80 +3 +3 1020.8 1007.4 0.7
01 22.02 СЗ 2 н/о н/о +4.8 +3.0 88 +2 +2 1020.5 1007.1
02 22.02 С 1 н/о н/о +4.6 +3.1 90 +3 +3 1019.8 1006.4
03 22.02 З 2 н/о н/о +4.1 +2.8 91 +1 +1 1019.3 1005.8
04 22.02 З 1 н/о н/о +4.2 +3.0 92 +3 +3 1018.9 1005.5
05 22.02 ЮЗ 2 н/о н/о +3.9 +2.9 93 +1 +1 1018.8 1005.3
06 22.02 СЗ 1 1800 м слаб. дождь 10/0 800 м
[As op]
+4.2 +3.3 94 +3 +3 1018.9 1005.5 +3.0 4
07 22.02 Ю 1 н/о н/о +4.5 +3.6 94 +3 +3 1018.5 1005.1
08 22.02 Ю 1 н/о н/о +5.2 +4.3 94 +4 +4 1018.5 1005.1
09 22.02 СЗ 1 4900 м дымка {дождь} 10/9 90 м
[Cu Sc]
+5.8 +4.6 92 +5 +5 1019.0 1005.6
10 22.02 СЗ 3 н/о н/о +6.2 +4.5 89 +3 +3 1019.7 1006.3
11 22.02 С 10
{16}
н/о н/о +3.8 -0.4 74 -3 -3 1020.8 1007.3
12 22.02 С 10
{20}
30 км {ливн. осадки, дождь} 9/9 800 м
[Cu Sc]
+3.4 -3.6 60 -3 -3 1021.6 1008.1 0.1
13 22.02 С 11
{19}
н/о н/о +3.3 -4.6 56 -4 -4 1022.0 1008.5
14 22.02 С 12
{22}
н/о н/о +2.2 -9.4 42 -5 -5 1023.5 1009.9
15 22.02 С 10
{21}
40 км 1/0
[Ac cast]
+1.3 -10.8 40 -6 -6 1025.7 1012.0
16 22.02 С 11
{19}
н/о н/о 0.0 -13.3 36 -8 -8 1026.9 1013.1
17 22.02 С 9
{18}
н/о н/о -0.7 -13.9 36 -8 -8 1028.3 1014.5
18 22.02 С 11
{19}
40 км ясно -1.5 -14.6 36 -10 -10 1030.0 1016.1 +6.2 0.1
19 22.02 СВ 10
{17}
н/о н/о -2.3 -15.7 35 -10 -10 1031.3 1017.4
20 22.02 СВ 10
{18}
н/о н/о -2.7 -15.4 37 -11 -11 1032.9 1018.9
21 22.02 С 8
{14}
40 км ясно -3.0 -15.0 39 -10 -10 1033.9 1019.9
22 22.02 С 7
{13}
н/о н/о -3.2 -14.6 41 -10 -10 1034.7 1020.7
23 22.02 С 5
{11}
н/о н/о -3.5 -14.3 43 -10 -10 1035.8 1021.7
00 23.02 С 6
{10}
40 км ясно -3.8 -13.2 48 -11 -11 1036.4 1022.3
01 23.02 С 7
{10}
н/о н/о -4.0 -13.1 49 -11 -11 1036.9 1022.8
02 23.02 С 5
{11}
н/о н/о -4.1 -13.5 48 -10 -10 1037.7 1023.6
03 23.02 С 5
{12}
н/о н/о -4.3 -13.4 49 -11 -11 1038.2 1024.1
04 23.02 С 5
{11}
н/о н/о -4.6 -13.4 50 -11 -11 1038.7 1024.5
05 23.02 С 5
{8}
н/о н/о -4.8 -13.1 52 -11 -11 1039.3 1025.1
06 23.02 С 5
{9}
30 км ясно -4.7 -13.0 52 -11 -11 1039.6 1025.4 -4.9
07 23.02 С 5
{9}
н/о н/о -3.6 -12.8 49 -10 -10 1040.3 1026.2
08 23.02 СВ 8
{11}
н/о н/о -2.5 -13.4 43 -10 -10 1040.3 1026.2
09 23.02 С 6
{10}
30 км ясно -1.3 -13.5 39 -7 -7 1040.6 1026.6
10 23.02 С 5
{10}
н/о н/о -0.6 -12.2 41 -6 -6 1040.8 1026.8
11 23.02 С 6
{11}
н/о н/о 0.0 -12.0 40 -6 -6 1040.5 1026.6
12 23.02 С 7
{14}
н/о н/о +0.4 -12.6 37 -6 -6 1040.4 1026.5
13 23.02 С 7
{13}
н/о н/о +0.9 -12.5 36 -5 -5 1039.9 1026.0
14 23.02 С 7
{12}
н/о н/о +1.1 -12.3 36 -5 -5 1039.5 1025.6
15 23.02 СВ 6
{10}
30 км ясно +0.9 -12.8 35 -4 -4 1039.5 1025.6
16 23.02 СВ 6
{9}
н/о н/о +0.1 -12.9 37 -6 -6 1039.8 1025.9
17 23.02 С 3
{7}
н/о н/о -0.5 -12.4 40 -4 -4 1040.1 1026.1
18 23.02 С 3 н/о н/о -0.7 -12.6 40 -5 -5 1040.4 1026.4 +1.3
21 23.02 С 3 н/о н/о -2.7 -12.4 47 -7 -7 1041.0 1026.9
22 23.02 СВ 4
{7}
н/о н/о -3.3 -12.7 48 -9 -9 1040.9 1026.8

 

Местоположение метеостанции Дебрецен (Венгрия): широта 47.48 долгота 21.60 высота над уровнем моря 109 м.

В архиве по умолчанию представлена погода в Дебрецене за последнюю неделю. Архивные данные за месяц целиком и за предыдущие месяцы, начиная с января 2011 года, Вы можете получить, выбрав интересующий диапазон дат из раскрывающегося списка и нажав кнопку "Ввод!".


*Определитесь, кто Вы:
робот инопланетянин человек

Внимание! Время в таблицах - всемирное. Для получения местного времени необходимо прибавить поправку, которая равна 1 ч.

Смотрите также архив погоды в соседних городах и на ближайших метеорологических станциях:

Погода в Сэкуени (Румыния) (40 км)
Погода в Орадя (Румыния) (55 км)
Погода в Ньиредьхазе (Венгрия) (58 км)
Погода в Порозло (Венгрия) (75 км)
Погода в Холоде (Румыния) (87 км)
Погода в Супуру де Йос (Румыния) (89 км)
Погода в Мишкольце (Венгрия) (93 км)
Погода в Бороде (Румыния) (94 км)
Погода в Бекешчабе (Венгрия) (95 км)
Погода в Сату-Маре (Румыния) (100 км)

Пояснения к столбцам:

Ветер - указаны скорость ветра в м/с - средняя за 10 мин, порывы в срок и между сроками (в фигурных скобках) и направление, откуда дует ветер: С - северный, СВ - северо-восточный, В - восточный, ЮВ - юго-восточный, Ю - южный, ЮЗ - юго-западный, З - западный, СЗ - северо-западный.
Видимость - горизонтальная дальность видимости в метрах или километрах. При видимости от 1 до 10 км при отсутствии осадков обычно наблюдается дымка, при ухудшении видимости до 1 км и менее - туман. В сухую погоду видимость может ухудшаться дымом, пылью или мглою.
Явления - указаны атмосферные явления, наблюдавшиеся в срок или в последний час перед сроком; фигурными скобками обозначены явления, наблюдавшиеся между сроками (за 1-3 часа до срока); квадратными скобками обозначены град или гололедные отложения с указанием их диаметра в мм.
Облачность - указаны через наклонную черту общая и нижняя облачность в баллах и высота нижней границы облаков в метрах; квадратными скобками обозначены формы облаков: Ci - перистые, Cs - перисто-слоистые, Cc - перисто-кучевые, Ac - высококучевые, As - высокослоистые, Sc - слоисто-кучевые, Ns - слоисто-дождевые, Cu - кучевые, Cb - кучево-дождевые. Подробнее классификацию облаков см. в Атласе облаков (PDF).
T - Температура воздуха - температура, измеренная на высоте 2 м над землей.
Td - Температура точки росы - температура, при понижении до которой содержащийся в воздухе водяной пар достигнет насыщения.
f - Относительная влажность воздуха - влажноcть воздуха, измеренная на высоте 2 м над землей.
Te - Эффективная температура - температура, которую ощущает одетый по сезону человек в тени. Характеристика душности погоды. При расчете учитывается влияние влажности воздуха и скорости ветра на теплоощущения человека.
Tes - Эффективная температура на солнце - температура, которую ощущает человек, с поправкой на солнечный нагрев. Характеристика знойности погоды. Зависит от высоты солнца над горизонтом, облачности и скорости ветра. Ночью, в пасмурную погоду, а также при ветре 12 м/с и более поправка равна нулю.
P - Атмосферное давление - приведенное к уровню моря атмосферное давление.
Po - Атмосферное давление - измеренное на уровне метеостанции атмосферное давление.
Tmin - Минимальная температура - минимум температуры воздуха на высоте 2 м над землей.
Tmax - Максимальная температура - максимум температуры воздуха на высоте 2 м над землей.
R - Количество осадков - Количество выпавших осадков за период времени, мм. При наведении курсора мыши на число - период времени, за который выпало указанное количество осадков.
R24 - Количество осадков - Количество выпавших осадков за 24 часа, мм.
S - Снежный покров - Высота снежного покрова, см. При наведении курсора мыши на число - состояние снежного покрова и степень покрытия местности в баллах.